[[{"header":{"parameterUnit":"m.s-1","parameterCategory":1,"la1":30.2992,"la2":30.254,"lo1":-89.0895,"lo2":-89.0443,"dy":0.0025,"dx":0.0025,"nx":19,"ny":19,"refTime":"2026-04-25T03:00:00:Z","depth":0,"parameterNumber":2,"parameterNumberName":"U-component_of_WINDS"},"data":[0,0,0,-1.0703,-1.0702,-1.0633,-1.0633,-1.0556,-1.0556,0,0,0,0,0,0,0,0,0,0,0,-1.0732,-1.0732,-1.0703,-1.0702,-1.0633,-1.0633,-1.0556,-1.0556,0,0,0,0,0,0,0,0,0,0,0,-1.0732,-1.0732,-1.0732,-1.0701,-1.0633,-1.0633,-1.0556,-1.0604,0,0,0,0,0,0,0,0,0,0,-1.0668,-1.0704,-1.0732,-1.0732,-1.0701,-1.0633,-1.0633,-1.0606,-1.0601,-1.0592,0,-1.059,0,-1.0572,-1.0551,-1.0551,0,0,0,-1.0694,-1.0708,-1.0682,-1.0732,-1.07,-1.0634,-1.0662,-1.0603,-1.0597,-1.0586,-1.0588,-1.0585,-1.057,-1.0551,-1.0551,-1.0532,-1.0532,0,0,-1.0698,-1.0724,-1.0686,-1.0679,-1.0693,-1.0664,-1.066,-1.0599,-1.0603,-1.0588,-1.0583,-1.0569,-1.0551,-1.055,-1.0532,-1.0532,0,0,0,-1.0714,-1.0727,-1.0702,-1.0682,-1.0669,-1.0662,-1.0658,-1.0605,-1.0595,-1.0582,-1.0568,-1.055,-1.0549,-1.0532,-1.0532,-1.057,0,0,0,-1.0716,-1.0736,-1.0704,-1.0719,-1.0671,-1.0637,-1.0665,-1.0599,-1.0592,-1.0569,-1.055,-1.0549,-1.0531,-1.0532,-1.0568,-1.0583,0,0,0,-1.0733,-1.0738,-1.0731,-1.072,-1.0692,-1.0637,-1.0623,-1.0597,-1.0583,-1.0551,-1.0549,-1.0531,-1.0532,-1.0567,-1.0581,-1.0586,0,0,0,-1.0759,-1.0765,-1.0732,-1.0734,-1.0693,-1.0662,-1.0624,-1.0599,-1.0576,-1.055,-1.0531,-1.0532,-1.0566,-1.0579,-1.0585,-1.0595,-1.0602,0,0,-1.0781,-1.0769,-1.0768,-1.0736,-1.0718,-1.0671,-1.0657,-1.061,-1.0582,-1.055,-1.0549,-1.0569,-1.0581,-1.0586,-1.0632,-1.0638,0,0,0,-1.0783,-1.0783,-1.0772,-1.0753,-1.0718,-1.0689,-1.0642,-1.0625,-1.0596,-1.0572,-1.0571,-1.0578,-1.0579,-1.0583,-1.0588,-1.0587,-1.0535,-1.0535,-1.0535,-1.0852,-1.0817,-1.0812,-1.077,-1.075,-1.0702,-1.0683,-1.065,-1.062,-1.062,-1.0611,-1.0643,-1.0649,-1.0652,-1.0652,-1.0613,-1.0613,-1.0614,-1.0614,-1.0881,-1.0875,-1.0835,-1.0816,-1.0779,-1.0762,-1.0714,-1.0693,-1.0671,-1.0648,-1.0648,-1.0626,-1.066,-1.0658,-1.0616,-1.0616,-1.0615,-1.0615,-1.0615,-1.0922,-1.0913,-1.0893,-1.086,-1.0838,-1.0793,-1.0774,-1.074,-1.0707,-1.0707,-1.0692,-1.0692,-1.0686,-1.0703,-1.0703,-1.0703,-1.0703,-1.0703,-1.0703,-1.0973,-1.0949,-1.0938,-1.0901,-1.0884,-1.0856,-1.0806,-1.0787,-1.0757,-1.0734,-1.0733,-1.0703,-1.067,-1.0662,-1.0705,-1.0704,-1.0704,-1.0704,-1.0704,-1.1016,-1.1001,-1.0984,-1.0966,-1.092,-1.09,-1.0857,-1.082,-1.0799,-1.0791,-1.0759,-1.0741,-1.0725,-1.0721,-1.0715,-1.0768,-1.0768,-1.0768,-1.0768,-1.1051,-1.104,-1.1014,-1.0988,-1.0958,-1.0917,-1.0897,-1.0858,-1.0814,-1.0799,-1.0786,-1.0774,-1.0772,-1.0757,-1.0752,-1.0746,-1.0806,-1.0806,-1.0806,-1.1075,-1.1059,-1.1049,-1.1009,-1.097,-1.0936,-1.0916,-1.0885,-1.0833,-1.0806,-1.0786,-1.0784,-1.0765,-1.076,-1.0734,-1.0727,-1.0714,0,0]},{"header":{"parameterUnit":"m.s-1","parameterCategory":1,"la1":30.2992,"la2":30.254,"lo1":-89.0895,"lo2":-89.0443,"dy":0.0025,"dx":0.0025,"nx":19,"ny":19,"refTime":"2026-04-25T03:00:00:Z","depth":0,"parameterNumber":3,"parameterNumberName":"V-component_of_WINDS"},"data":[0,0,0,1.4293,1.4293,1.4268,1.4268,1.4228,1.4227,0,0,0,0,0,0,0,0,0,0,0,1.4296,1.4296,1.4293,1.4293,1.4268,1.4268,1.4228,1.4227,0,0,0,0,0,0,0,0,0,0,0,1.4297,1.4296,1.4296,1.4292,1.4268,1.4268,1.4228,1.4249,0,0,0,0,0,0,0,0,0,0,1.4274,1.4274,1.4296,1.4296,1.4292,1.4268,1.4268,1.425,1.4248,1.4235,0,1.4225,0,1.4226,1.4224,1.4224,0,0,0,1.4295,1.4276,1.4273,1.4296,1.4292,1.4268,1.428,1.4249,1.4246,1.4232,1.4224,1.4223,1.4225,1.4224,1.4224,1.4148,1.4148,0,0,1.4296,1.4289,1.4275,1.4271,1.4276,1.4281,1.4279,1.4247,1.4238,1.4224,1.4222,1.4224,1.4224,1.4223,1.4149,1.4148,0,0,0,1.4299,1.429,1.4288,1.4272,1.4269,1.428,1.4278,1.4239,1.4239,1.4222,1.4224,1.4223,1.4223,1.4149,1.4149,1.412,0,0,0,1.4299,1.4291,1.4289,1.4284,1.4269,1.4254,1.427,1.4241,1.4238,1.4224,1.4223,1.4222,1.415,1.4149,1.4122,1.4107,0,0,0,1.4299,1.4291,1.4287,1.4284,1.4273,1.4255,1.4253,1.4241,1.4239,1.4224,1.4222,1.415,1.4149,1.4123,1.4109,1.4085,0,0,0,1.4296,1.426,1.4286,1.4246,1.4274,1.4238,1.4253,1.4226,1.421,1.4223,1.415,1.4149,1.4124,1.4111,1.4087,1.4064,1.4054,0,0,1.4246,1.4253,1.423,1.4253,1.4211,1.4242,1.4195,1.4185,1.4189,1.4161,1.416,1.4121,1.411,1.4086,1.3999,1.3991,0,0,0,1.4212,1.4195,1.4186,1.4171,1.4165,1.4157,1.4157,1.4153,1.4131,1.4174,1.4106,1.4099,1.4086,1.4075,1.4068,1.4057,1.4143,1.4144,1.4144,1.4129,1.4139,1.4102,1.4108,1.4093,1.4094,1.4083,1.4078,1.409,1.4074,1.4065,1.4011,1.3999,1.3993,1.3982,1.4054,1.4054,1.4053,1.4053,1.4056,1.4034,1.4054,1.4024,1.4034,1.4009,1.4008,1.4017,1.3995,1.4018,1.4006,1.4031,1.3984,1.3974,1.4051,1.4052,1.4052,1.4052,1.4052,1.4003,1.3994,1.3993,1.3974,1.3957,1.3965,1.3943,1.3952,1.396,1.3949,1.3941,1.3942,1.3943,1.3945,1.3944,1.3944,1.3944,1.3944,1.3944,1.3949,1.3948,1.3929,1.3921,1.3913,1.3904,1.3906,1.3898,1.3892,1.39,1.39,1.3913,1.3978,1.3995,1.3941,1.3942,1.3942,1.3942,1.3942,1.3871,1.389,1.3862,1.3854,1.3846,1.383,1.3842,1.3826,1.3821,1.381,1.3827,1.3874,1.3881,1.3886,1.39,1.3825,1.3825,1.3825,1.3825,1.3826,1.3831,1.3805,1.3793,1.3782,1.3791,1.3758,1.3759,1.3762,1.3759,1.3772,1.379,1.3796,1.38,1.3807,1.382,1.3727,1.3726,1.3726,1.3778,1.3784,1.3754,1.376,1.3754,1.3749,1.3718,1.3703,1.371,1.3723,1.3758,1.3762,1.3792,1.3802,1.3814,1.3825,1.3848,0,0]}]]